sat.trackr.live / text

‹ back to catalog

COSMOS 2483 (RODNIK-S 5)

NORAD 39058 · 2013-001B

PAYLOAD ACTIVE UNKNOWN

§ Identity

Operator
Country
CIS
Launch date
2013-01-15
Launch site
PLMSC
Launch vehicle
Mass (kg)
RCS (m²)
2.23

External: N2YO · Heavens-Above · Gunter

§ Orbital elements

Epoch: 2026-09-20T04:14:21.650208Z

Period
115.75 min
Inclination
82.5025°
Eccentricity
0.0016250
Mean motion
12.44027044 rev/d
Perigee alt
1,476.8 km
Apogee alt
1,502.4 km
Semi-major
7,867.7 km
B*
5.3287e-4
RAAN
155.7328°
Arg perigee
160.9647°
Mean anomaly
199.2044°
Rev number
61,340

§ Raw data

COSMOS 2483 (RODNIK-S 5)1 39058U 13001B   26263.17663947  .00000085  00000+0  53287-3 0  99922 39058  82.5025 155.7328 0016250 160.9647 199.2044 12.44027044613408

JSON: /api/v1/satellites/39058 · /tle

For live sub-satellite position, see the globe view (requires WebGL).

§ Visibility from observer

Set your observer location to see the next 7 days of passes ≥ 10°. The values pass through the URL so the page stays shareable.

No JS? Fill the form by hand. The geolocation button needs JavaScript.